Weather History for KDVT - December, 2012

Change the Weather History Date:

Sunday, December 30, 2012

  Actual Average Record
Temperature  
Mean Temperature 46 °F -  
Max Temperature 51 °F 61 °F 72 °F (2011)
Min Temperature 42 °F 41 °F 34 °F (2007)
Degree Days  
Heating Degree Days 18    
Moisture  
Dew Point 31 °F    
Average Humidity 58    
Maximum Humidity 86    
Minimum Humidity 38    
Precipitation  
Precipitation 0.00 in - - ()
Sea Level Pressure  
Sea Level Pressure 29.88 in    
Wind  
Wind Speed 1 mph (ESE)    
Max Wind Speed 9 mph    
Max Gust Speed -    
Visibility 10 miles    
Events Rain    
Averages and records for this station are not official NWS values.
T = Trace of Precipitation, MM = Missing Value Source: NWS Daily Summary

Daily Weather History Graph

Daily Weather History Graph

Search for Another Location

Airport or City:

Trip Planner

Search our weather history database for the weather conditions in past years. The results will help you decide how hot, cold, wet, or windy it might be!

Date:

Astronomy

Dec. 30, 2012 Rise Set
Actual Time 7:32 AM MST 5:29 PM MST
Civil Twilight 7:05 AM MST 5:57 PM MST
Nautical Twilight 6:33 AM MST 6:28 PM MST
Astronomical Twilight 6:03 AM MST 6:58 PM MST
Moon 7:56 PM MST (12/30) 8:50 AM MST (12/30)
Length of Visible Light 10h 52m
Length of Day
9h 57m
Waning Gibbous, 95% of the Moon is Illuminated
Dec 30
Waning Gibbous
Jan 4
Last Quarter
Jan 11
New
Jan 18
First Quarter
Jan 26
Full

Hourly Weather History & Observations

Time (MST) Temp. Windchill Dew Point Humidity Pressure Visibility Wind Dir Wind Speed Gust Speed Precip Events Conditions
12:53 AM 44.1 °F - 27.0 °F 51% 29.91 in 10.0 mi Calm Calm - N/A   Clear
1:53 AM 44.1 °F - 28.0 °F 53% 29.89 in 10.0 mi Calm Calm - N/A   Clear
2:53 AM 43.0 °F - 28.9 °F 58% 29.90 in 10.0 mi Calm Calm - N/A   Clear
3:53 AM 42.1 °F - 30.0 °F 62% 29.89 in 10.0 mi Calm Calm - N/A   Clear
4:53 AM 42.1 °F - 30.0 °F 62% 29.88 in 10.0 mi Calm Calm - N/A   Clear
5:53 AM 43.0 °F - 28.9 °F 58% 29.86 in 10.0 mi Calm Calm - N/A   Clear
6:53 AM 43.0 °F - 30.0 °F 60% 29.87 in 10.0 mi Calm Calm - N/A   Clear
7:53 AM 42.1 °F - 30.9 °F 65% 29.89 in 10.0 mi Calm Calm - N/A   Clear
8:53 AM 45.0 °F 41.8 °F 28.9 °F 53% 29.90 in 10.0 mi East 5.8 mph - N/A   Clear
9:53 AM 46.9 °F - 30.0 °F 52% 29.91 in 10.0 mi East 3.5 mph - N/A   Clear
10:53 AM 48.0 °F - 28.9 °F 48% 29.92 in 10.0 mi Calm Calm - N/A   Clear
10:57 AM 48.2 °F - 28.4 °F 46% 29.93 in 10.0 mi Calm Calm - N/A   Clear
11:53 AM 48.9 °F - 27.0 °F 43% 29.89 in 10.0 mi Calm Calm - N/A   Clear
12:53 PM 50.0 °F - 26.1 °F 39% 29.85 in 10.0 mi Calm Calm - N/A   Clear
1:53 PM 51.1 °F - 27.0 °F 39% 29.83 in 10.0 mi WSW 4.6 mph - N/A   Clear
2:53 PM 51.1 °F - 26.1 °F 38% 29.82 in 10.0 mi Calm Calm - N/A   Partly Cloudy
3:53 PM 51.1 °F - 28.9 °F 43% 29.83 in 10.0 mi WSW 9.2 mph - 0.00 in Rain Light Rain
4:53 PM 48.0 °F - 33.1 °F 56% 29.83 in 10.0 mi NNW 5.8 mph - 0.00 in   Overcast
5:53 PM 48.9 °F - 30.9 °F 50% 29.84 in 10.0 mi North 3.5 mph - 0.00 in   Overcast
6:53 PM 46.0 °F - 37.9 °F 73% 29.87 in 10.0 mi Calm Calm - 0.00 in   Overcast
7:53 PM 46.0 °F 43.9 °F 37.9 °F 73% 29.88 in 10.0 mi SE 4.6 mph - 0.00 in   Mostly Cloudy
8:53 PM 46.0 °F 42.5 °F 37.9 °F 73% 29.89 in 10.0 mi SE 6.9 mph - N/A   Overcast
9:53 PM 44.1 °F 39.0 °F 39.0 °F 82% 29.91 in 10.0 mi SE 9.2 mph - N/A   Mostly Cloudy
10:53 PM 43.0 °F 40.3 °F 37.9 °F 82% 29.92 in 10.0 mi ESE 4.6 mph - N/A   Scattered Clouds
11:53 PM 43.0 °F - 39.0 °F 86% 29.94 in 10.0 mi Calm Calm - N/A   Mostly Cloudy